THY7PY LIRF-LOWI

Flight info

Callsign THY7PY
Flight time 1h 22m
Altitude 34000
Route SOVAN DCT AMTEL DCT GAVRA DCT AGOMO DCT OSLOP/N0446F330 DCT KUBUD/N0448F340 DCT VEKEN DCT NANIT NANIT2A
Aircraft B738/M-SDE2E3FGHIRWXY/LB1

Departure

Time 2026-05-06 13:09
Airport Rome–Fiumicino Leonardo da Vinci International Airport (LIRF)

Arrival

Time 2026-05-06 14:31
Airport Innsbruck Airport (LOWI)
Time Latitude Longitude Altitude Speed Heading
2026-05-06 12:47 41.78839 12.24431 10 ft 0 kts 343°
2026-05-06 13:01 41.78838 12.24432 9 ft 1 kts 343°
2026-05-06 13:01 41.78824 12.24437 9 ft 2 kts 343°
2026-05-06 13:02 41.78810 12.24443 9 ft 2 kts 343°
2026-05-06 13:02 41.78799 12.24448 9 ft 0 kts 343°
2026-05-06 13:02 41.78791 12.24452 9 ft 1 kts 299°
2026-05-06 13:02 41.78789 12.24463 9 ft 0 kts 254°
2026-05-06 13:03 41.78792 12.24471 9 ft 1 kts 251°
2026-05-06 13:03 41.78792 12.24472 9 ft 0 kts 251°
2026-05-06 13:04 41.78792 12.24471 9 ft 0 kts 251°
2026-05-06 13:05 41.78784 12.24442 9 ft 5 kts 243°
2026-05-06 13:05 41.78742 12.24389 10 ft 9 kts 220°
2026-05-06 13:05 41.78717 12.24324 12 ft 8 kts 248°
2026-05-06 13:05 41.78699 12.24253 12 ft 7 kts 251°
2026-05-06 13:06 41.78670 12.24188 12 ft 8 kts 209°
2026-05-06 13:06 41.78607 12.24201 12 ft 10 kts 162°
2026-05-06 13:06 41.78524 12.24236 12 ft 14 kts 163°
2026-05-06 13:06 41.78426 12.24276 12 ft 14 kts 162°
2026-05-06 13:07 41.78347 12.24298 12 ft 9 kts 191°
2026-05-06 13:07 41.78313 12.24236 12 ft 8 kts 254°
2026-05-06 13:07 41.78295 12.24155 12 ft 9 kts 253°
2026-05-06 13:07 41.78277 12.24077 12 ft 7 kts 255°
2026-05-06 13:08 41.78282 12.24013 12 ft 6 kts 307°
2026-05-06 13:08 41.78319 12.23988 12 ft 6 kts 343°
2026-05-06 13:08 41.78566 12.23885 13 ft 77 kts 342°
2026-05-06 13:08 41.79333 12.23563 9 ft 149 kts 342°
2026-05-06 13:09 41.80516 12.23079 72 ft 200 kts 343°
2026-05-06 13:09 41.81848 12.22546 847 ft 203 kts 341°
2026-05-06 13:09 41.83055 12.21709 1816 ft 199 kts 314°
2026-05-06 13:09 41.83704 12.20037 2167 ft 215 kts 271°
2026-05-06 13:10 41.83326 12.18106 2607 ft 226 kts 232°
2026-05-06 13:10 41.82168 12.16644 3326 ft 233 kts 224°
2026-05-06 13:10 41.81271 12.14788 3781 ft 255 kts 253°
2026-05-06 13:10 41.81334 12.12433 4616 ft 261 kts 288°
2026-05-06 13:11 41.82031 12.10196 5476 ft 266 kts 290°
2026-05-06 13:11 41.82668 12.07855 6303 ft 269 kts 286°
2026-05-06 13:11 41.83155 12.05488 7160 ft 270 kts 283°
2026-05-06 13:11 41.83564 12.03041 8009 ft 272 kts 282°
2026-05-06 13:12 41.83955 12.00550 8804 ft 275 kts 282°
2026-05-06 13:12 41.84345 11.98034 9591 ft 278 kts 282°
2026-05-06 13:12 41.84727 11.95498 10318 ft 283 kts 282°
2026-05-06 13:12 41.85130 11.92788 10486 ft 308 kts 282°
2026-05-06 13:13 41.85560 11.89881 10892 ft 323 kts 282°
2026-05-06 13:13 41.85988 11.86926 11524 ft 330 kts 282°
2026-05-06 13:13 41.86420 11.83872 12221 ft 334 kts 282°
2026-05-06 13:13 41.86847 11.80827 12973 ft 336 kts 283°
2026-05-06 13:14 41.87563 11.77877 13641 ft 337 kts 299°
2026-05-06 13:14 41.88858 11.75262 14432 ft 336 kts 309°
2026-05-06 13:14 41.90427 11.72921 15064 ft 339 kts 320°
2026-05-06 13:14 41.92372 11.71190 15752 ft 341 kts 334°
2026-05-06 13:15 41.94572 11.70028 16443 ft 343 kts 343°
2026-05-06 13:15 41.96924 11.69472 17041 ft 348 kts 356°
2026-05-06 13:15 41.99328 11.69696 17705 ft 352 kts
2026-05-06 13:15 42.01698 11.70602 18290 ft 358 kts 19°
2026-05-06 13:16 42.03888 11.72252 18867 ft 366 kts 33°
2026-05-06 13:16 42.05758 11.74583 19435 ft 374 kts 45°
2026-05-06 13:16 42.07211 11.77474 19965 ft 384 kts 59°
2026-05-06 13:16 42.08130 11.80931 20473 ft 395 kts 74°
2026-05-06 13:17 42.08492 11.84612 21001 ft 401 kts 81°
2026-05-06 13:17 42.08611 11.88335 21444 ft 406 kts 83°
2026-05-06 13:17 42.09048 11.92089 21881 ft 402 kts 67°
2026-05-06 13:17 42.10246 11.95343 22377 ft 392 kts 48°
2026-05-06 13:18 42.12093 11.97910 22861 ft 385 kts 33°
2026-05-06 13:18 42.14243 11.99975 23329 ft 384 kts 28°
2026-05-06 13:18 42.16536 12.01825 23749 ft 384 kts 21°
2026-05-06 13:18 42.19036 12.03035 24219 ft 379 kts
2026-05-06 13:19 42.21612 12.03284 24664 ft 374 kts 353°
2026-05-06 13:19 42.24182 12.02805 25168 ft 373 kts 348°
2026-05-06 13:19 42.26739 12.02175 25547 ft 376 kts 347°
2026-05-06 13:19 42.29318 12.01543 25984 ft 378 kts 348°
2026-05-06 13:20 42.31867 12.00934 26406 ft 379 kts 348°
2026-05-06 13:20 42.34471 12.00325 26800 ft 381 kts 348°
2026-05-06 13:20 42.37096 11.99718 27201 ft 383 kts 348°
2026-05-06 13:20 42.39697 11.99123 27590 ft 385 kts 348°
2026-05-06 13:21 42.42346 11.98518 27968 ft 386 kts 348°
2026-05-06 13:21 42.45005 11.97915 28329 ft 388 kts 348°
2026-05-06 13:21 42.47626 11.97319 28688 ft 390 kts 348°
2026-05-06 13:21 42.50280 11.96717 29034 ft 391 kts 348°
2026-05-06 13:22 42.52981 11.96104 29380 ft 393 kts 348°
2026-05-06 13:22 42.55646 11.95501 29695 ft 395 kts 348°
2026-05-06 13:22 42.58373 11.94882 30051 ft 396 kts 348°
2026-05-06 13:22 42.61077 11.94268 30354 ft 397 kts 348°
2026-05-06 13:23 42.63771 11.93657 30650 ft 399 kts 348°
2026-05-06 13:23 42.66539 11.93027 30963 ft 400 kts 348°
2026-05-06 13:23 42.69256 11.92410 31256 ft 402 kts 348°
2026-05-06 13:23 42.71990 11.91788 31536 ft 403 kts 348°
2026-05-06 13:24 42.74563 11.91202 31835 ft 403 kts 348°
2026-05-06 13:24 42.77387 11.90558 32208 ft 402 kts 348°
2026-05-06 13:24 42.80155 11.89879 32582 ft 400 kts 346°
2026-05-06 13:24 42.82830 11.88956 32946 ft 398 kts 342°
2026-05-06 13:25 42.85389 11.87640 33295 ft 396 kts 335°
2026-05-06 13:25 42.87841 11.85967 33697 ft 393 kts 332°
2026-05-06 13:25 42.90233 11.84235 33991 ft 392 kts 332°
2026-05-06 13:26 42.95010 11.80748 33994 ft 389 kts 332°
2026-05-06 13:26 42.99727 11.77297 33997 ft 383 kts 332°
2026-05-06 13:27 43.04410 11.73864 33997 ft 383 kts 331°
2026-05-06 13:27 43.09116 11.70401 33981 ft 384 kts 331°
2026-05-06 13:28 43.13758 11.66979 33967 ft 385 kts 331°
2026-05-06 13:28 43.18620 11.63878 33955 ft 386 kts 340°
2026-05-06 13:29 43.23888 11.62716 33947 ft 393 kts 355°
2026-05-06 13:29 43.29360 11.63660 33934 ft 403 kts
2026-05-06 13:30 43.34755 11.65735 33918 ft 405 kts
2026-05-06 13:30 43.40149 11.67844 33911 ft 404 kts
2026-05-06 13:31 43.45545 11.69951 33912 ft 404 kts
2026-05-06 13:31 43.50947 11.72053 33912 ft 405 kts
2026-05-06 13:32 43.56311 11.74145 33912 ft 405 kts
2026-05-06 13:32 43.61710 11.76251 33912 ft 404 kts
2026-05-06 13:33 43.67117 11.78363 33912 ft 404 kts
2026-05-06 13:33 43.72415 11.80440 33912 ft 404 kts 10°
2026-05-06 13:34 43.77695 11.83016 33910 ft 412 kts 18°
2026-05-06 13:34 43.82782 11.86640 33911 ft 415 kts 21°
2026-05-06 13:35 43.87800 11.90415 33911 ft 415 kts 21°
2026-05-06 13:35 43.92716 11.94165 33912 ft 416 kts 21°
2026-05-06 13:36 43.97778 11.98058 33912 ft 416 kts 21°
2026-05-06 13:36 44.02801 12.01938 33911 ft 416 kts 21°
2026-05-06 13:37 44.07814 12.05826 33913 ft 416 kts 21°
2026-05-06 13:37 44.12774 12.09682 33912 ft 417 kts 21°
2026-05-06 13:38 44.17823 12.13619 33911 ft 416 kts 21°
2026-05-06 13:38 44.22850 12.17545 33912 ft 415 kts 21°
2026-05-06 13:39 44.27861 12.21470 33912 ft 416 kts 21°
2026-05-06 13:39 44.32898 12.25419 33912 ft 416 kts 21°
2026-05-06 13:40 44.38730 12.30004 33911 ft 415 kts 21°
2026-05-06 13:40 44.42930 12.33312 33912 ft 415 kts 21°
2026-05-06 13:41 44.47937 12.37264 33912 ft 416 kts 21°
2026-05-06 13:41 44.52968 12.41242 33911 ft 416 kts 21°
2026-05-06 13:42 44.57997 12.45225 33912 ft 416 kts 21°
2026-05-06 13:42 44.63016 12.49210 33912 ft 416 kts 21°
2026-05-06 13:43 44.68007 12.53178 33911 ft 415 kts 21°
2026-05-06 13:43 44.73045 12.57194 33912 ft 416 kts 21°
2026-05-06 13:44 44.78063 12.61201 33912 ft 416 kts 21°
2026-05-06 13:44 44.83067 12.65207 33911 ft 416 kts 22°
2026-05-06 13:45 44.88081 12.69231 33912 ft 416 kts 22°
2026-05-06 13:45 44.95561 12.75251 33911 ft 416 kts 22°
2026-05-06 13:46 45.00571 12.79284 33911 ft 416 kts 20°
2026-05-06 13:46 45.05760 12.82638 33912 ft 411 kts 15°
2026-05-06 13:47 45.10996 12.85756 33913 ft 413 kts 15°
2026-05-06 13:47 45.16309 12.88923 33911 ft 414 kts 14°
2026-05-06 13:48 45.21553 12.92054 33911 ft 413 kts 15°
2026-05-06 13:48 45.26859 12.95231 33912 ft 413 kts 14°
2026-05-06 13:49 45.32110 12.98385 33912 ft 412 kts 14°
2026-05-06 13:49 45.37301 13.01513 33911 ft 408 kts 14°
2026-05-06 13:50 45.42435 13.04610 33912 ft 404 kts 14°
2026-05-06 13:50 45.47577 13.07717 33914 ft 401 kts 14°
2026-05-06 13:51 45.52644 13.10784 33919 ft 397 kts 14°
2026-05-06 13:51 45.57697 13.13849 33927 ft 394 kts 14°
2026-05-06 13:52 45.62635 13.17028 33932 ft 395 kts 19°
2026-05-06 13:52 45.67250 13.21160 33929 ft 398 kts 24°
2026-05-06 13:53 45.71801 13.25641 33923 ft 398 kts 24°
2026-05-06 13:53 45.76231 13.30070 33922 ft 400 kts 25°
2026-05-06 13:54 45.80591 13.34465 33926 ft 400 kts 25°
2026-05-06 13:54 45.85200 13.39136 33932 ft 400 kts 25°
2026-05-06 13:55 45.89735 13.43746 33937 ft 400 kts 25°
2026-05-06 13:55 45.94239 13.48338 33938 ft 400 kts 25°
2026-05-06 13:56 45.98762 13.52960 33939 ft 400 kts 25°
2026-05-06 13:56 46.03434 13.57106 33937 ft 386 kts 14°
2026-05-06 13:57 46.05942 13.58212 33938 ft 374 kts
2026-05-06 13:57 46.08459 13.58438 33943 ft 367 kts 353°
2026-05-06 13:57 46.13347 13.57124 33941 ft 363 kts 341°
2026-05-06 13:58 46.18035 13.55014 33938 ft 362 kts 341°
2026-05-06 13:58 46.22834 13.52861 33939 ft 361 kts 341°
2026-05-06 13:59 46.27533 13.50768 33938 ft 361 kts 341°
2026-05-06 13:59 46.32304 13.48649 33938 ft 362 kts 341°
2026-05-06 14:00 46.37091 13.46521 33939 ft 362 kts 341°
2026-05-06 14:00 46.41860 13.44399 33938 ft 362 kts 341°
2026-05-06 14:01 46.46637 13.42272 33928 ft 362 kts 341°
2026-05-06 14:01 46.51413 13.40140 33920 ft 362 kts 341°
2026-05-06 14:02 46.56087 13.37627 33911 ft 361 kts 333°
2026-05-06 14:02 46.60137 13.33415 33914 ft 363 kts 322°
2026-05-06 14:03 46.63896 13.28773 33912 ft 364 kts 322°
2026-05-06 14:03 46.67716 13.24066 33911 ft 363 kts 322°
2026-05-06 14:04 46.71565 13.19330 33912 ft 363 kts 322°
2026-05-06 14:04 46.75354 13.14680 33912 ft 366 kts 322°
2026-05-06 14:05 46.79210 13.09937 33912 ft 370 kts 321°
2026-05-06 14:05 46.83157 13.05068 33911 ft 373 kts 321°
2026-05-06 14:06 46.87112 13.00178 33912 ft 376 kts 320°
2026-05-06 14:06 46.91121 12.95213 33887 ft 379 kts 320°
2026-05-06 14:07 46.95102 12.90262 33851 ft 375 kts 319°
2026-05-06 14:07 46.98971 12.85441 33839 ft 370 kts 319°
2026-05-06 14:08 47.02763 12.80711 33845 ft 368 kts 319°
2026-05-06 14:08 47.06655 12.75849 33856 ft 367 kts 319°
2026-05-06 14:09 47.10500 12.71028 33845 ft 368 kts 319°
2026-05-06 14:09 47.12423 12.68618 33731 ft 365 kts 319°
2026-05-06 14:09 47.14308 12.66255 33195 ft 362 kts 318°
2026-05-06 14:10 47.16229 12.63855 32573 ft 364 kts 318°
2026-05-06 14:10 47.18174 12.61416 31954 ft 372 kts 317°
2026-05-06 14:10 47.20103 12.58990 31321 ft 374 kts 317°
2026-05-06 14:10 47.22068 12.56519 30690 ft 376 kts 317°
2026-05-06 14:11 47.24059 12.54008 30060 ft 384 kts 316°
2026-05-06 14:11 47.26096 12.51436 29358 ft 386 kts 316°
2026-05-06 14:11 47.28117 12.48882 28660 ft 390 kts 316°
2026-05-06 14:11 47.30162 12.46294 28000 ft 391 kts 316°
2026-05-06 14:12 47.32202 12.43711 27506 ft 382 kts 315°
2026-05-06 14:12 47.34192 12.41187 26959 ft 385 kts 315°
2026-05-06 14:12 47.36097 12.38468 26380 ft 385 kts 308°
2026-05-06 14:12 47.37714 12.35410 25836 ft 375 kts 301°
2026-05-06 14:13 47.38953 12.32089 25305 ft 367 kts 291°
2026-05-06 14:13 47.39753 12.28527 24770 ft 371 kts 283°
2026-05-06 14:13 47.40225 12.24839 24216 ft 368 kts 278°
2026-05-06 14:13 47.40589 12.21123 23658 ft 363 kts 277°
2026-05-06 14:14 47.40910 12.17710 23108 ft 359 kts 277°
2026-05-06 14:14 47.41257 12.14011 22520 ft 362 kts 277°
2026-05-06 14:14 47.41595 12.10372 21940 ft 363 kts 276°
2026-05-06 14:14 47.41936 12.06706 21336 ft 358 kts 276°
2026-05-06 14:15 47.42266 12.03139 20770 ft 354 kts 276°
2026-05-06 14:15 47.42598 11.99526 20191 ft 356 kts 275°
2026-05-06 14:15 47.42793 11.95878 19559 ft 358 kts 270°
2026-05-06 14:15 47.42735 11.92276 18953 ft 353 kts 263°
2026-05-06 14:16 47.42380 11.88708 18357 ft 349 kts 259°
2026-05-06 14:16 47.41949 11.85230 17828 ft 344 kts 259°
2026-05-06 14:16 47.41511 11.81772 17257 ft 348 kts 258°
2026-05-06 14:16 47.41070 11.78326 16688 ft 347 kts 258°
2026-05-06 14:17 47.40670 11.75225 16167 ft 344 kts 258°
2026-05-06 14:17 47.40186 11.71496 15556 ft 340 kts 258°
2026-05-06 14:17 47.39746 11.68118 15021 ft 340 kts 258°
2026-05-06 14:17 47.39295 11.64681 14467 ft 344 kts 258°
2026-05-06 14:18 47.38841 11.61222 13898 ft 340 kts 257°
2026-05-06 14:18 47.38394 11.57820 13334 ft 337 kts 257°
2026-05-06 14:18 47.37952 11.54476 12776 ft 334 kts 257°
2026-05-06 14:18 47.37508 11.51122 12240 ft 337 kts 257°
2026-05-06 14:19 47.37059 11.47736 11663 ft 338 kts 257°
2026-05-06 14:19 47.36609 11.44325 11097 ft 335 kts 257°
2026-05-06 14:19 47.36171 11.41022 10716 ft 326 kts 257°
2026-05-06 14:19 47.35747 11.37827 10564 ft 308 kts 256°
2026-05-06 14:20 47.35348 11.34832 10506 ft 290 kts 255°
2026-05-06 14:20 47.34947 11.31891 10409 ft 300 kts 255°
2026-05-06 14:20 47.34552 11.28965 10217 ft 288 kts 255°
2026-05-06 14:20 47.34175 11.26150 10020 ft 271 kts 255°
2026-05-06 14:21 47.33814 11.23476 9654 ft 262 kts 255°
2026-05-06 14:21 47.33472 11.20942 9502 ft 246 kts 254°
2026-05-06 14:21 47.33147 11.18539 9347 ft 233 kts 254°
2026-05-06 14:21 47.32845 11.16265 9254 ft 219 kts 253°
2026-05-06 14:22 47.32555 11.14133 9205 ft 202 kts 253°
2026-05-06 14:22 47.32281 11.12155 8942 ft 193 kts 252°
2026-05-06 14:22 47.32024 11.10272 8724 ft 183 kts 252°
2026-05-06 14:22 47.31775 11.08445 8421 ft 181 kts 252°
2026-05-06 14:23 47.31540 11.06643 8413 ft 175 kts 252°
2026-05-06 14:23 47.31309 11.04838 8466 ft 186 kts 253°
2026-05-06 14:23 47.31068 11.03002 8413 ft 178 kts 252°
2026-05-06 14:23 47.30817 11.01251 8435 ft 177 kts 251°
2026-05-06 14:24 47.30568 10.99434 8471 ft 183 kts 251°
2026-05-06 14:24 47.30060 10.97776 8410 ft 172 kts 221°
2026-05-06 14:24 47.29122 10.96842 8453 ft 162 kts 196°
2026-05-06 14:24 47.28009 10.96691 8443 ft 164 kts 169°
2026-05-06 14:25 47.27003 10.97461 8425 ft 167 kts 139°
2026-05-06 14:25 47.26460 10.98960 8092 ft 173 kts 109°
2026-05-06 14:25 47.26414 11.00722 7679 ft 177 kts 83°
2026-05-06 14:25 47.27032 11.02301 7239 ft 185 kts 49°
2026-05-06 14:26 47.28051 11.03446 7004 ft 181 kts 40°
2026-05-06 14:26 47.28940 11.04690 7086 ft 175 kts 64°
2026-05-06 14:26 47.29268 11.06348 7200 ft 169 kts 98°
2026-05-06 14:26 47.29147 11.08039 7305 ft 167 kts 103°
2026-05-06 14:27 47.28976 11.09747 7291 ft 162 kts 105°
2026-05-06 14:27 47.28771 11.11362 7072 ft 159 kts 108°
2026-05-06 14:27 47.28508 11.12922 6831 ft 158 kts 111°
2026-05-06 14:27 47.28191 11.14469 6625 ft 154 kts 112°
2026-05-06 14:28 47.27860 11.15934 6413 ft 150 kts 112°
2026-05-06 14:28 47.27512 11.17390 6075 ft 151 kts 114°
2026-05-06 14:28 47.27166 11.18854 5737 ft 153 kts 115°
2026-05-06 14:28 47.26807 11.20296 5499 ft 146 kts 114°
2026-05-06 14:29 47.26455 11.21673 5120 ft 147 kts 113°
2026-05-06 14:29 47.26097 11.23093 4738 ft 149 kts 116°
2026-05-06 14:29 47.25734 11.24505 4365 ft 147 kts 109°
2026-05-06 14:29 47.25505 11.25978 3930 ft 149 kts 104°
2026-05-06 14:30 47.25381 11.27490 3439 ft 153 kts 94°
2026-05-06 14:30 47.25469 11.29045 2954 ft 154 kts 87°
2026-05-06 14:30 47.25602 11.30558 2581 ft 146 kts 81°
2026-05-06 14:30 47.25781 11.32025 2234 ft 144 kts 83°
2026-05-06 14:31 47.25922 11.33461 1953 ft 139 kts 83°
2026-05-06 14:31 47.26057 11.34728 1902 ft 98 kts 81°
2026-05-06 14:31 47.26113 11.35247 1899 ft 14 kts 75°
2026-05-06 14:31 47.26113 11.35278 1899 ft 1 kts 154°
2026-05-06 14:32 47.26089 11.35270 1899 ft 6 kts 191°
2026-05-06 14:32 47.26038 11.35267 1899 ft 5 kts 171°
2026-05-06 14:32 47.26000 11.35277 1899 ft 5 kts 169°
2026-05-06 14:32 47.25963 11.35287 1899 ft 5 kts 169°
2026-05-06 14:33 47.25935 11.35294 1899 ft 3 kts 173°
2026-05-06 14:33 47.25898 11.35301 1899 ft 4 kts 171°
2026-05-06 14:33 47.25875 11.35305 1899 ft 3 kts 175°
2026-05-06 14:33 47.25858 11.35307 1899 ft 1 kts 173°
2026-05-06 14:34 47.25850 11.35308 1899 ft 0 kts 172°